QPF
0.02 0.01 0.00 0.00 0.00 0.00 0.00 0.00 0.00 0.00 0.00 0.00 0.00 0.00 0.00 0.00 0.00 0.00 0.00 0.00 0.00 0.00 0.00 0.02 0.02 0.02 0.02 0.02 0.02 0.01 0.01 0.01 0.01 0.01 0.01 0.00 0.01 0.01 0.01 0.01 0.01 0.01 0.01 0.01 0.01 0.01 0.00 0.00 0.00
0.01 0.00 0.00 0.00 0.00 0.00 0.00 0.00 0.00 0.00 0.00 0.00 0.00 0.00 0.00 0.00 0.00 0.00 0.00 0.00 0.00 0.00 0.00 0.01 0.02 0.02 0.02 0.02 0.02 0.01 0.01 0.01 0.01 0.01 0.01 0.01 0.01 0.01 0.01 0.01 0.01 0.01 0.01 0.00 0.00 0.00 0.00 0.00 0.00
0.01 0.01 0.00 0.00 0.00 0.00 0.00 0.00 0.00 0.00 0.00 0.00 0.00 0.00 0.00 0.00 0.00 0.00 0.00 0.00 0.00 0.00 0.00 0.01 0.02 0.02 0.02 0.02 0.02 0.02 0.01 0.01 0.01 0.01 0.01 0.01 0.01 0.01 0.01 0.01 0.01 0.01 0.01 0.00 0.00 0.00 0.00 0.00 0.00
0.02 0.02 0.01 0.00 0.00 0.00 0.00 0.00 0.00 0.00 0.00 0.00 0.00 0.00 0.00 0.00 0.00 0.00 0.00 0.00 0.00 0.00 0.00 0.01 0.02 0.03 0.03 0.02 0.02 0.02 0.01 0.01 0.01 0.01 0.01 0.01 0.01 0.01 0.01 0.01 0.01 0.01 0.00 0.00 0.00 0.00 0.00 0.00 0.00
0.02 0.03 0.02 0.01 0.00 0.00 0.00 0.00 0.00 0.00 0.00 0.00 0.00 0.00 0.00 0.00 0.00 0.00 0.00 0.00 0.00 0.00 0.00 0.01 0.02 0.03 0.03 0.02 0.02 0.02 0.01 0.01 0.01 0.01 0.01 0.01 0.01 0.01 0.01 0.01 0.01 0.00 0.00 0.00 0.00 0.00 0.00 0.00 0.00
0.04 0.04 0.02 0.01 0.00 0.00 0.00 0.00 0.00 0.00 0.00 0.00 0.00 0.00 0.00 0.00 0.00 0.00 0.00 0.00 0.00 0.00 0.00 0.01 0.03 0.03 0.03 0.02 0.02 0.02 0.01 0.01 0.01 0.01 0.01 0.01 0.01 0.01 0.01 0.01 0.00 0.00 0.00 0.00 0.00 0.00 0.00 0.00 0.00
0.04 0.04 0.02 0.00 0.00 0.00 0.00 0.00 0.00 0.00 0.00 0.00 0.00 0.00 0.00 0.00 0.00 0.00 0.00 0.00 0.00 0.00 0.01 0.01 0.03 0.03 0.03 0.03 0.02 0.02 0.01 0.01 0.01 0.01 0.01 0.01 0.01 0.01 0.01 0.01 0.00 0.00 0.00 0.00 0.00 0.00 0.00 0.00 0.00
0.04 0.04 0.02 0.01 0.00 0.00 0.00 0.00 0.00 0.00 0.00 0.00 0.00 0.00 0.00 0.00 0.00 0.00 0.00 0.00 0.01 0.01 0.01 0.01 0.02 0.02 0.03 0.02 0.02 0.02 0.01 0.01 0.01 0.01 0.01 0.01 0.01 0.01 0.01 0.00 0.00 0.01 0.01 0.00 0.00 0.00 0.00 0.00 0.00
0.07 0.06 0.02 0.01 0.00 0.00 0.00 0.00 0.00 0.00 0.00 0.00 0.00 0.00 0.00 0.00 0.00 0.01 0.01 0.01 0.01 0.01 0.01 0.02 0.02 0.02 0.02 0.02 0.02 0.02 0.02 0.01 0.01 0.01 0.01 0.01 0.00 0.00 0.00 0.00 0.01 0.01 0.00 0.00 0.00 0.00 0.00 0.00 0.00
0.09 0.06 0.02 0.00 0.00 0.01 0.01 0.01 0.01 0.01 0.00 0.00 0.00 0.00 0.00 0.00 0.00 0.00 0.01 0.01 0.01 0.01 0.01 0.02 0.02 0.02 0.02 0.02 0.02 0.02 0.02 0.02 0.01 0.01 0.01 0.00 0.00 0.00 0.00 0.00 0.01 0.01 0.00 0.00 0.00 0.00 0.00 0.00 0.00
0.09 0.06 0.02 0.01 0.00 0.01 0.01 0.01 0.01 0.01 0.01 0.00 0.00 0.00 0.00 0.00 0.00 0.00 0.00 0.00 0.01 0.01 0.02 0.02 0.01 0.01 0.02 0.01 0.02 0.01 0.01 0.02 0.01 0.01 0.00 0.00 0.00 0.00 0.00 0.00 0.00 0.00 0.00 0.00 0.00 0.00 0.00 0.00 0.00
0.06 0.05 0.03 0.02 0.01 0.01 0.01 0.01 0.01 0.01 0.01 0.00 0.00 0.00 0.00 0.01 0.01 0.01 0.01 0.01 0.01 0.02 0.03 0.03 0.02 0.02 0.02 0.01 0.01 0.01 0.01 0.01 0.01 0.00 0.00 0.00 0.00 0.00 0.00 0.00 0.00 0.00 0.00 0.00 0.00 0.00 0.00 0.00 0.00
0.04 0.03 0.03 0.02 0.02 0.02 0.02 0.02 0.01 0.01 0.00 0.00 0.00 0.00 0.00 0.01 0.01 0.01 0.02 0.01 0.01 0.02 0.03 0.03 0.03 0.02 0.02 0.02 0.01 0.01 0.01 0.01 0.00 0.00 0.00 0.00 0.00 0.00 0.00 0.00 0.00 0.00 0.00 0.00 0.00 0.00 0.00 0.00 0.00
0.04 0.02 0.02 0.02 0.02 0.02 0.02 0.02 0.01 0.00 0.00 0.00 0.00 0.00 0.00 0.01 0.02 0.02 0.03 0.03 0.02 0.02 0.02 0.03 0.03 0.02 0.02 0.02 0.01 0.01 0.01 0.01 0.00 0.00 0.00 0.00 0.00 0.00 0.00 0.00 0.00 0.00 0.00 0.00 0.00 0.00 0.00 0.00 0.00
0.04 0.03 0.02 0.02 0.02 0.02 0.03 0.03 0.01 0.00 0.00 0.00 0.00 0.00 0.00 0.01 0.02 0.02 0.03 0.04 0.03 0.03 0.02 0.03 0.03 0.03 0.03 0.02 0.02 0.01 0.01 0.01 0.00 0.00 0.00 0.00 0.00 0.00 0.00 0.00 0.00 0.00 0.00 0.00 0.00 0.00 0.00 0.00 0.00
0.05 0.06 0.04 0.01 0.01 0.01 0.03 0.03 0.01 0.00 0.00 0.00 0.00 0.00 0.01 0.01 0.02 0.02 0.02 0.04 0.05 0.05 0.05 0.04 0.04 0.04 0.04 0.03 0.02 0.02 0.01 0.01 0.00 0.00 0.00 0.00 0.00 0.00 0.00 0.00 0.00 0.00 0.00 0.00 0.00 0.00 0.00 0.00 0.00
0.07 0.07 0.03 0.01 0.01 0.01 0.03 0.02 0.00 0.00 0.01 0.01 0.01 0.01 0.00 0.01 0.02 0.03 0.03 0.03 0.05 0.06 0.06 0.06 0.06 0.05 0.04 0.04 0.04 0.02 0.01 0.01 0.01 0.00 0.00 0.00 0.00 0.00 0.00 0.00 0.00 0.00 0.00 0.00 0.00 0.00 0.00 0.00 0.00
0.05 0.04 0.03 0.01 0.01 0.02 0.02 0.01 0.00 0.00 0.01 0.01 0.01 0.01 0.01 0.00 0.01 0.02 0.04 0.03 0.04 0.06 0.07 0.07 0.07 0.07 0.06 0.05 0.05 0.04 0.03 0.02 0.01 0.00 0.00 0.00 0.00 0.00 0.00 0.00 0.00 0.00 0.00 0.00 0.00 0.00 0.00 0.00 0.00
0.04 0.04 0.03 0.02 0.02 0.05 0.04 0.02 0.01 0.01 0.01 0.02 0.01 0.01 0.01 0.01 0.00 0.01 0.04 0.04 0.05 0.05 0.06 0.07 0.07 0.07 0.07 0.06 0.05 0.04 0.03 0.02 0.01 0.00 0.00 0.00 0.00 0.00 0.00 0.00 0.00 0.00 0.00 0.00 0.00 0.00 0.00 0.00 0.00
0.04 0.05 0.03 0.02 0.02 0.05 0.05 0.02 0.01 0.01 0.01 0.01 0.01 0.01 0.01 0.01 0.01 0.01 0.02 0.04 0.04 0.05 0.05 0.05 0.06 0.07 0.07 0.06 0.05 0.03 0.02 0.02 0.01 0.00 0.00 0.00 0.00 0.00 0.00 0.00 0.00 0.00 0.00 0.00 0.00 0.00 0.00 0.00 0.00
0.03 0.03 0.02 0.02 0.02 0.04 0.04 0.02 0.00 0.00 0.00 0.00 0.01 0.01 0.01 0.01 0.01 0.01 0.01 0.02 0.04 0.04 0.04 0.04 0.04 0.06 0.06 0.06 0.07 0.05 0.05 0.04 0.02 0.01 0.00 0.00 0.00 0.00 0.00 0.00 0.00 0.00 0.00 0.00 0.00 0.00 0.00 0.00 0.00
0.03 0.02 0.02 0.03 0.04 0.05 0.04 0.03 0.00 0.00 0.00 0.00 0.00 0.00 0.01 0.01 0.01 0.01 0.01 0.01 0.03 0.03 0.03 0.03 0.05 0.06 0.06 0.07 0.07 0.06 0.04 0.04 0.03 0.01 0.00 0.00 0.00 0.00 0.00 0.00 0.00 0.00 0.00 0.00 0.00 0.00 0.00 0.00 0.00
0.03 0.01 0.02 0.03 0.05 0.05 0.03 0.04 0.01 0.00 0.00 0.00 0.00 0.00 0.00 0.00 0.01 0.01 0.00 0.00 0.02 0.03 0.03 0.03 0.04 0.06 0.07 0.07 0.06 0.06 0.05 0.03 0.02 0.02 0.01 0.01 0.00 0.00 0.00 0.00 0.00 0.00 0.00 0.00 0.00 0.00 0.00 0.00 0.00
0.02 0.03 0.04 0.04 0.07 0.08 0.02 0.02 0.01 0.00 0.00 0.00 0.00 0.00 0.00 0.00 0.00 0.00 0.00 0.00 0.01 0.02 0.03 0.04 0.04 0.05 0.07 0.08 0.07 0.05 0.05 0.04 0.03 0.02 0.01 0.01 0.00 0.00 0.00 0.00 0.00 0.00 0.00 0.00 0.00 0.00 0.00 0.00 0.00
0.04 0.07 0.11 0.11 0.11 0.06 0.01 0.01 0.01 0.00 0.00 0.00 0.00 0.00 0.00 0.00 0.00 0.00 0.00 0.00 0.00 0.01 0.02 0.04 0.05 0.04 0.05 0.07 0.07 0.05 0.05 0.05 0.04 0.02 0.02 0.01 0.00 0.00 0.00 0.00 0.00 0.00 0.00 0.00 0.00 0.00 0.00 0.00 0.00
0.06 0.08 0.10 0.09 0.05 0.01 0.01 0.01 0.01 0.01 0.01 0.01 0.00 0.00 0.00 0.00 0.00 0.00 0.00 0.00 0.00 0.01 0.01 0.03 0.05 0.04 0.04 0.06 0.07 0.05 0.05 0.05 0.05 0.04 0.02 0.01 0.01 0.00 0.00 0.00 0.00 0.00 0.00 0.00 0.00 0.00 0.00 0.00 0.00
0.06 0.07 0.07 0.09 0.05 0.02 0.01 0.01 0.00 0.01 0.01 0.01 0.00 0.00 0.00 0.00 0.00 0.00 0.00 0.00 0.00 0.00 0.01 0.01 0.02 0.04 0.04 0.05 0.06 0.07 0.06 0.05 0.04 0.05 0.04 0.02 0.01 0.01 0.00 0.00 0.00 0.00 0.00 0.00 0.00 0.00 0.00 0.00 0.00
0.04 0.06 0.08 0.12 0.09 0.03 0.01 0.00 0.00 0.01 0.01 0.01 0.00 0.00 0.00 0.00 0.00 0.00 0.00 0.00 0.00 0.00 0.00 0.00 0.01 0.02 0.04 0.05 0.06 0.08 0.08 0.06 0.05 0.05 0.05 0.04 0.02 0.01 0.00 0.00 0.00 0.00 0.00 0.00 0.00 0.00 0.00 0.01 0.01
0.03 0.06 0.07 0.10 0.09 0.05 0.02 0.01 0.01 0.01 0.01 0.01 0.01 0.01 0.00 0.00 0.00 0.00 0.00 0.00 0.00 0.00 0.00 0.01 0.01 0.02 0.03 0.05 0.06 0.07 0.08 0.08 0.06 0.05 0.05 0.05 0.03 0.02 0.01 0.00 0.00 0.00 0.00 0.00 0.00 0.01 0.01 0.01 0.01
0.02 0.04 0.05 0.08 0.07 0.04 0.03 0.02 0.01 0.01 0.01 0.01 0.01 0.01 0.01 0.00 0.00 0.00 0.00 0.00 0.00 0.00 0.00 0.01 0.01 0.02 0.02 0.03 0.06 0.08 0.09 0.10 0.06 0.04 0.04 0.05 0.05 0.03 0.01 0.01 0.00 0.00 0.00 0.00 0.00 0.01 0.01 0.01 0.01
MSLP
1012.02 1012.39 1012.91 1013.48 1013.99 1014.34 1014.46 1014.33 1013.95 1013.40 1012.75 1012.06 1011.39 1010.76 1010.14 1009.52 1008.87 1008.17 1007.47 1006.81 1006.27 1005.93 1005.85 1006.04 1006.50 1007.15 1007.90 1008.66 1009.35 1009.93 1010.40 1010.77 1011.09 1011.42 1011.79 1012.20 1012.66 1013.12 1013.55 1013.92 1014.22 1014.44 1014.62 1014.77 1014.93 1015.12 1015.35 1015.60 1015.86
1012.19 1012.56 1013.04 1013.52 1013.91 1014.11 1014.06 1013.76 1013.23 1012.53 1011.76 1011.00 1010.28 1009.64 1009.05 1008.49 1007.93 1007.35 1006.77 1006.24 1005.82 1005.57 1005.56 1005.81 1006.30 1006.98 1007.77 1008.58 1009.34 1009.99 1010.54 1010.99 1011.38 1011.74 1012.12 1012.52 1012.94 1013.36 1013.75 1014.10 1014.38 1014.62 1014.82 1015.01 1015.21 1015.43 1015.67 1015.93 1016.18
1012.41 1012.73 1013.13 1013.50 1013.74 1013.79 1013.60 1013.16 1012.52 1011.75 1010.92 1010.12 1009.39 1008.74 1008.18 1007.67 1007.18 1006.70 1006.22 1005.80 1005.48 1005.33 1005.39 1005.68 1006.21 1006.91 1007.72 1008.56 1009.36 1010.08 1010.69 1011.21 1011.64 1012.04 1012.42 1012.79 1013.18 1013.55 1013.90 1014.22 1014.51 1014.76 1015.00 1015.23 1015.48 1015.74 1016.01 1016.28 1016.54
1012.65 1012.90 1013.19 1013.42 1013.51 1013.43 1013.12 1012.60 1011.92 1011.12 1010.30 1009.51 1008.79 1008.17 1007.63 1007.15 1006.71 1006.29 1005.90 1005.57 1005.34 1005.26 1005.38 1005.71 1006.25 1006.95 1007.75 1008.59 1009.41 1010.15 1010.80 1011.36 1011.84 1012.26 1012.64 1013.01 1013.37 1013.71 1014.03 1014.34 1014.63 1014.91 1015.19 1015.47 1015.76 1016.06 1016.36 1016.65 1016.92
1012.88 1013.05 1013.20 1013.28 1013.24 1013.04 1012.67 1012.12 1011.45 1010.70 1009.93 1009.20 1008.53 1007.94 1007.42 1006.96 1006.55 1006.17 1005.83 1005.57 1005.41 1005.40 1005.56 1005.90 1006.43 1007.10 1007.86 1008.66 1009.44 1010.18 1010.84 1011.42 1011.93 1012.38 1012.79 1013.17 1013.52 1013.86 1014.18 1014.49 1014.79 1015.10 1015.41 1015.74 1016.07 1016.41 1016.74 1017.04 1017.31
1013.07 1013.12 1013.14 1013.08 1012.91 1012.63 1012.22 1011.69 1011.09 1010.43 1009.77 1009.13 1008.53 1007.99 1007.49 1007.05 1006.65 1006.29 1005.99 1005.77 1005.67 1005.70 1005.88 1006.22 1006.71 1007.32 1008.01 1008.73 1009.45 1010.15 1010.80 1011.39 1011.93 1012.43 1012.88 1013.30 1013.68 1014.04 1014.37 1014.70 1015.02 1015.35 1015.69 1016.05 1016.41 1016.77 1017.11 1017.42 1017.69
1013.17 1013.11 1012.98 1012.78 1012.51 1012.16 1011.75 1011.28 1010.77 1010.25 1009.72 1009.20 1008.69 1008.20 1007.74 1007.30 1006.90 1006.55 1006.28 1006.10 1006.03 1006.09 1006.29 1006.61 1007.05 1007.58 1008.17 1008.80 1009.44 1010.08 1010.70 1011.30 1011.88 1012.43 1012.94 1013.42 1013.86 1014.26 1014.63 1014.98 1015.32 1015.67 1016.02 1016.39 1016.76 1017.12 1017.47 1017.78 1018.04
1013.18 1012.99 1012.73 1012.40 1012.03 1011.64 1011.23 1010.83 1010.44 1010.06 1009.67 1009.28 1008.87 1008.45 1008.01 1007.59 1007.19 1006.85 1006.59 1006.43 1006.40 1006.48 1006.69 1006.99 1007.39 1007.84 1008.34 1008.87 1009.42 1009.99 1010.59 1011.19 1011.81 1012.42 1013.01 1013.57 1014.08 1014.54 1014.95 1015.33 1015.68 1016.02 1016.37 1016.73 1017.09 1017.45 1017.79 1018.09 1018.35
1013.11 1012.81 1012.42 1011.97 1011.52 1011.08 1010.69 1010.35 1010.07 1009.82 1009.56 1009.29 1008.98 1008.61 1008.21 1007.79 1007.39 1007.06 1006.81 1006.68 1006.68 1006.80 1007.02 1007.32 1007.67 1008.07 1008.49 1008.94 1009.41 1009.94 1010.50 1011.12 1011.78 1012.45 1013.12 1013.75 1014.34 1014.86 1015.31 1015.70 1016.05 1016.39 1016.72 1017.05 1017.40 1017.74 1018.07 1018.36 1018.61
1013.03 1012.62 1012.12 1011.57 1011.03 1010.55 1010.16 1009.87 1009.67 1009.52 1009.38 1009.20 1008.96 1008.64 1008.27 1007.86 1007.46 1007.13 1006.90 1006.80 1006.83 1006.98 1007.22 1007.53 1007.88 1008.24 1008.62 1009.01 1009.45 1009.93 1010.49 1011.12 1011.81 1012.53 1013.27 1013.97 1014.61 1015.17 1015.65 1016.05 1016.40 1016.71 1017.02 1017.34 1017.66 1017.98 1018.30 1018.59 1018.84
1012.99 1012.51 1011.91 1011.27 1010.66 1010.13 1009.73 1009.46 1009.30 1009.22 1009.14 1009.03 1008.84 1008.55 1008.19 1007.79 1007.39 1007.06 1006.84 1006.75 1006.81 1007.00 1007.27 1007.61 1007.98 1008.35 1008.71 1009.10 1009.51 1009.99 1010.55 1011.18 1011.90 1012.66 1013.43 1014.17 1014.85 1015.44 1015.93 1016.34 1016.68 1016.98 1017.27 1017.56 1017.87 1018.19 1018.51 1018.80 1019.06
1013.08 1012.54 1011.87 1011.17 1010.49 1009.92 1009.48 1009.20 1009.05 1008.98 1008.94 1008.85 1008.67 1008.40 1008.04 1007.63 1007.22 1006.88 1006.66 1006.58 1006.66 1006.87 1007.18 1007.56 1007.96 1008.37 1008.77 1009.17 1009.61 1010.10 1010.66 1011.31 1012.03 1012.80 1013.58 1014.34 1015.03 1015.63 1016.13 1016.54 1016.87 1017.17 1017.46 1017.75 1018.05 1018.38 1018.71 1019.02 1019.29
1013.33 1012.76 1012.06 1011.31 1010.58 1009.96 1009.49 1009.17 1008.99 1008.90 1008.83 1008.73 1008.54 1008.25 1007.88 1007.44 1007.02 1006.65 1006.41 1006.32 1006.39 1006.61 1006.95 1007.37 1007.82 1008.29 1008.75 1009.21 1009.70 1010.22 1010.80 1011.45 1012.16 1012.92 1013.69 1014.43 1015.11 1015.70 1016.21 1016.62 1016.97 1017.28 1017.59 1017.89 1018.22 1018.56 1018.91 1019.25 1019.54
1013.74 1013.17 1012.46 1011.69 1010.95 1010.29 1009.77 1009.39 1009.16 1009.00 1008.88 1008.73 1008.50 1008.18 1007.76 1007.30 1006.83 1006.43 1006.15 1006.02 1006.06 1006.27 1006.61 1007.05 1007.56 1008.10 1008.64 1009.18 1009.73 1010.30 1010.91 1011.56 1012.26 1012.98 1013.71 1014.42 1015.07 1015.66 1016.17 1016.61 1016.99 1017.34 1017.68 1018.02 1018.39 1018.76 1019.14 1019.50 1019.81
1014.23 1013.69 1013.02 1012.27 1011.53 1010.85 1010.29 1009.85 1009.53 1009.29 1009.08 1008.85 1008.55 1008.17 1007.72 1007.21 1006.70 1006.25 1005.90 1005.71 1005.69 1005.85 1006.17 1006.63 1007.17 1007.78 1008.40 1009.04 1009.67 1010.30 1010.95 1011.60 1012.28 1012.96 1013.64 1014.31 1014.93 1015.51 1016.04 1016.51 1016.94 1017.35 1017.74 1018.14 1018.55 1018.96 1019.36 1019.75 1020.08
1014.74 1014.26 1013.65 1012.96 1012.25 1011.58 1010.98 1010.47 1010.05 1009.70 1009.38 1009.04 1008.67 1008.22 1007.71 1007.16 1006.60 1006.09 1005.67 1005.40 1005.30 1005.39 1005.66 1006.10 1006.67 1007.32 1008.03 1008.76 1009.48 1010.19 1010.87 1011.54 1012.20 1012.84 1013.48 1014.10 1014.71 1015.29 1015.83 1016.35 1016.85 1017.32 1017.78 1018.23 1018.69 1019.13 1019.56 1019.96 1020.31
1015.17 1014.78 1014.26 1013.67 1013.03 1012.38 1011.75 1011.18 1010.65 1010.16 1009.71 1009.25 1008.77 1008.25 1007.69 1007.10 1006.49 1005.92 1005.43 1005.07 1004.88 1004.87 1005.07 1005.47 1006.04 1006.73 1007.51 1008.33 1009.14 1009.93 1010.67 1011.36 1012.01 1012.63 1013.23 1013.82 1014.41 1015.00 1015.58 1016.15 1016.71 1017.25 1017.77 1018.28 1018.77 1019.25 1019.69 1020.09 1020.45
1015.45 1015.18 1014.81 1014.34 1013.79 1013.19 1012.55 1011.89 1011.24 1010.60 1009.99 1009.39 1008.80 1008.21 1007.60 1006.97 1006.34 1005.73 1005.17 1004.73 1004.43 1004.32 1004.43 1004.76 1005.31 1006.02 1006.85 1007.75 1008.65 1009.52 1010.33 1011.06 1011.72 1012.33 1012.91 1013.47 1014.05 1014.65 1015.27 1015.89 1016.51 1017.11 1017.70 1018.25 1018.77 1019.25 1019.70 1020.11 1020.47
1015.58 1015.47 1015.27 1014.96 1014.53 1013.97 1013.31 1012.57 1011.78 1010.97 1010.18 1009.43 1008.72 1008.05 1007.39 1006.75 1006.10 1005.47 1004.87 1004.35 1003.95 1003.74 1003.75 1004.00 1004.50 1005.20 1006.07 1007.02 1008.01 1008.96 1009.84 1010.62 1011.30 1011.92 1012.49 1013.05 1013.63 1014.24 1014.89 1015.55 1016.23 1016.88 1017.51 1018.09 1018.63 1019.12 1019.57 1019.98 1020.35
1015.59 1015.67 1015.67 1015.54 1015.23 1014.74 1014.06 1013.21 1012.26 1011.26 1010.28 1009.36 1008.52 1007.77 1007.08 1006.43 1005.79 1005.15 1004.53 1003.95 1003.48 1003.16 1003.05 1003.21 1003.63 1004.31 1005.18 1006.18 1007.23 1008.25 1009.20 1010.04 1010.77 1011.40 1011.98 1012.55 1013.13 1013.76 1014.43 1015.13 1015.84 1016.53 1017.19 1017.79 1018.34 1018.83 1019.27 1019.69 1020.08
1015.56 1015.85 1016.07 1016.13 1015.96 1015.51 1014.79 1013.83 1012.70 1011.49 1010.31 1009.20 1008.23 1007.40 1006.69 1006.04 1005.43 1004.82 1004.19 1003.57 1003.02 1002.60 1002.38 1002.42 1002.75 1003.37 1004.21 1005.23 1006.32 1007.41 1008.42 1009.32 1010.10 1010.76 1011.37 1011.94 1012.54 1013.17 1013.86 1014.58 1015.31 1016.03 1016.71 1017.33 1017.88 1018.38 1018.83 1019.26 1019.68
1015.59 1016.11 1016.55 1016.79 1016.73 1016.32 1015.54 1014.44 1013.12 1011.70 1010.30 1009.02 1007.92 1007.02 1006.28 1005.66 1005.08 1004.50 1003.88 1003.24 1002.62 1002.10 1001.76 1001.67 1001.88 1002.41 1003.20 1004.19 1005.30 1006.43 1007.50 1008.46 1009.28 1010.00 1010.63 1011.22 1011.83 1012.47 1013.17 1013.91 1014.66 1015.39 1016.08 1016.72 1017.28 1017.79 1018.27 1018.72 1019.18
1015.76 1016.50 1017.13 1017.53 1017.55 1017.14 1016.28 1015.05 1013.54 1011.90 1010.30 1008.86 1007.64 1006.67 1005.93 1005.33 1004.80 1004.25 1003.65 1002.99 1002.30 1001.68 1001.21 1000.97 1001.05 1001.45 1002.16 1003.10 1004.20 1005.34 1006.45 1007.46 1008.35 1009.10 1009.77 1010.39 1011.02 1011.67 1012.38 1013.12 1013.88 1014.63 1015.35 1016.00 1016.59 1017.12 1017.62 1018.11 1018.61
1016.08 1017.00 1017.79 1018.29 1018.36 1017.93 1016.98 1015.60 1013.91 1012.09 1010.32 1008.73 1007.42 1006.42 1005.67 1005.10 1004.62 1004.11 1003.52 1002.83 1002.08 1001.35 1000.74 1000.35 1000.27 1000.53 1001.12 1001.98 1003.03 1004.17 1005.30 1006.36 1007.29 1008.10 1008.82 1009.47 1010.12 1010.79 1011.51 1012.26 1013.03 1013.80 1014.53 1015.21 1015.83 1016.40 1016.94 1017.47 1018.01
1016.51 1017.56 1018.45 1019.00 1019.07 1018.58 1017.54 1016.02 1014.19 1012.23 1010.33 1008.65 1007.28 1006.25 1005.52 1004.99 1004.54 1004.07 1003.48 1002.77 1001.95 1001.11 1000.35 999.80 999.55 999.64 1000.09 1000.85 1001.83 1002.95 1004.09 1005.17 1006.16 1007.03 1007.79 1008.50 1009.18 1009.87 1010.60 1011.37 1012.15 1012.94 1013.70 1014.41 1015.06 1015.67 1016.25 1016.81 1017.38
1016.95 1018.06 1018.97 1019.51 1019.53 1018.97 1017.84 1016.23 1014.30 1012.25 1010.29 1008.57 1007.19 1006.17 1005.47 1004.97 1004.56 1004.10 1003.52 1002.76 1001.87 1000.93 1000.03 999.31 998.89 998.82 999.11 999.75 1000.64 1001.71 1002.84 1003.96 1004.99 1005.91 1006.74 1007.50 1008.23 1008.95 1009.71 1010.49 1011.29 1012.10 1012.88 1013.62 1014.31 1014.95 1015.55 1016.15 1016.74
1017.26 1018.34 1019.21 1019.68 1019.62 1018.98 1017.78 1016.11 1014.15 1012.09 1010.14 1008.45 1007.10 1006.13 1005.47 1005.01 1004.62 1004.18 1003.58 1002.79 1001.83 1000.79 999.76 998.89 998.30 998.06 998.20 998.70 999.50 1000.51 1001.62 1002.75 1003.82 1004.81 1005.70 1006.53 1007.31 1008.07 1008.85 1009.65 1010.47 1011.29 1012.09 1012.85 1013.57 1014.23 1014.86 1015.46 1016.06
1017.29 1018.27 1019.03 1019.38 1019.23 1018.52 1017.28 1015.63 1013.71 1011.72 1009.85 1008.24 1006.98 1006.07 1005.47 1005.05 1004.68 1004.24 1003.63 1002.80 1001.79 1000.66 999.53 998.54 997.80 997.40 997.39 997.76 998.44 999.38 1000.45 1001.58 1002.69 1003.74 1004.70 1005.59 1006.43 1007.25 1008.06 1008.88 1009.71 1010.54 1011.35 1012.12 1012.85 1013.52 1014.15 1014.75 1015.33
1016.92 1017.75 1018.34 1018.55 1018.31 1017.56 1016.34 1014.75 1012.95 1011.11 1009.40 1007.93 1006.79 1005.98 1005.43 1005.05 1004.69 1004.25 1003.62 1002.77 1001.72 1000.54 999.34 998.25 997.39 996.86 996.71 996.94 997.51 998.35 999.38 1000.50 1001.63 1002.72 1003.75 1004.71 1005.62 1006.48 1007.33 1008.17 1009.00 1009.83 1010.63 1011.40 1012.12 1012.79 1013.42 1014.00 1014.55
1016.11 1016.75 1017.16 1017.24 1016.92 1016.17 1015.02 1013.58 1011.96 1010.33 1008.81 1007.53 1006.54 1005.82 1005.33 1004.98 1004.63 1004.18 1003.54 1002.69 1001.63 1000.43 999.19 998.04 997.10 996.46 996.18 996.28 996.72 997.46 998.42 999.50 1000.64 1001.77 1002.85 1003.88 1004.84 1005.75 1006.63 1007.49 1008.32 1009.14 1009.93 1010.68 1011.39 1012.04 1012.64 1013.20 1013.73
Thickness
5691 5690 5688 5680 5665 5656 5664 5681 5693 5701 5707 5717 5723 5723 5724 5727 5728 5736 5762 5771 5772 5771 5769 5767 5765 5762 5759 5757 5756 5754 5752 5751 5750 5748 5747 5745 5744 5742 5741 5740 5739 5737 5736 5735 5733 5731 5729 5727 5725
5683 5681 5673 5662 5650 5649 5665 5682 5691 5703 5711 5717 5720 5723 5723 5729 5743 5751 5757 5764 5766 5766 5764 5763 5760 5757 5755 5753 5751 5750 5748 5747 5745 5744 5743 5741 5740 5738 5737 5736 5734 5733 5731 5730 5728 5726 5724 5722 5721
5674 5671 5658 5649 5647 5658 5673 5687 5692 5703 5707 5709 5713 5718 5722 5731 5742 5749 5755 5759 5760 5759 5758 5758 5755 5753 5751 5749 5747 5745 5744 5742 5741 5740 5739 5737 5736 5734 5733 5731 5730 5728 5726 5725 5723 5722 5719 5717 5716
5661 5652 5644 5641 5653 5669 5679 5688 5691 5693 5699 5704 5705 5708 5719 5735 5741 5746 5751 5753 5753 5753 5752 5752 5750 5748 5746 5744 5742 5740 5739 5738 5737 5736 5734 5733 5731 5730 5728 5726 5725 5723 5722 5720 5718 5717 5714 5712 5711
5647 5638 5632 5638 5655 5668 5675 5680 5682 5682 5687 5694 5696 5699 5711 5729 5737 5740 5743 5745 5746 5746 5746 5746 5745 5743 5741 5739 5737 5735 5734 5733 5732 5731 5729 5728 5727 5725 5723 5721 5720 5718 5717 5715 5714 5712 5710 5707 5706
5629 5626 5624 5637 5652 5663 5668 5671 5671 5673 5677 5684 5687 5692 5707 5721 5726 5730 5734 5736 5738 5739 5739 5739 5739 5738 5736 5734 5732 5730 5729 5728 5727 5726 5725 5723 5722 5720 5718 5716 5715 5713 5712 5711 5709 5707 5705 5703 5701
5616 5614 5621 5631 5641 5651 5661 5662 5661 5663 5668 5675 5682 5683 5699 5710 5716 5721 5724 5726 5728 5729 5730 5731 5732 5731 5730 5728 5726 5725 5724 5723 5722 5720 5719 5718 5717 5715 5713 5711 5710 5708 5707 5706 5704 5702 5700 5698 5696
5608 5604 5611 5620 5628 5642 5653 5655 5659 5658 5663 5674 5676 5676 5688 5701 5707 5710 5712 5714 5717 5720 5722 5723 5725 5724 5723 5722 5720 5719 5718 5717 5716 5715 5714 5713 5711 5710 5708 5706 5705 5703 5702 5700 5699 5697 5695 5693 5691
5596 5589 5604 5618 5620 5629 5640 5642 5649 5656 5657 5663 5670 5677 5686 5692 5696 5698 5700 5702 5706 5710 5713 5716 5717 5717 5717 5716 5714 5713 5712 5711 5710 5709 5708 5707 5706 5704 5702 5701 5699 5698 5696 5695 5694 5692 5689 5687 5685
5581 5584 5605 5614 5612 5616 5624 5628 5634 5637 5642 5650 5658 5667 5674 5680 5685 5688 5693 5697 5700 5704 5707 5710 5710 5711 5711 5710 5708 5707 5706 5705 5704 5703 5702 5701 5700 5698 5697 5695 5694 5693 5691 5690 5688 5686 5684 5681 5679
5572 5579 5592 5596 5601 5604 5608 5614 5621 5622 5629 5640 5647 5655 5660 5667 5674 5680 5687 5693 5698 5700 5701 5704 5704 5705 5705 5704 5702 5701 5700 5699 5698 5697 5696 5695 5693 5692 5691 5690 5688 5687 5686 5684 5682 5680 5678 5676 5674
5559 5570 5575 5580 5584 5587 5592 5598 5604 5612 5625 5634 5640 5646 5650 5657 5665 5673 5679 5685 5689 5692 5695 5697 5698 5698 5699 5698 5697 5696 5695 5694 5692 5691 5691 5689 5687 5686 5685 5684 5682 5681 5680 5678 5676 5674 5672 5670 5668
5546 5556 5562 5565 5567 5572 5577 5583 5590 5604 5618 5622 5628 5634 5641 5649 5657 5665 5671 5676 5681 5684 5688 5690 5692 5693 5693 5692 5691 5690 5690 5688 5687 5686 5685 5684 5682 5680 5679 5678 5677 5675 5674 5673 5670 5668 5667 5665 5663
5537 5540 5545 5550 5554 5560 5563 5572 5578 5600 5606 5609 5616 5623 5632 5641 5650 5656 5662 5669 5675 5679 5682 5685 5686 5687 5687 5687 5686 5685 5684 5683 5682 5681 5680 5679 5678 5676 5674 5672 5671 5670 5669 5667 5665 5663 5661 5659 5657
5522 5522 5530 5540 5544 5549 5550 5557 5575 5593 5592 5597 5605 5613 5623 5634 5642 5651 5659 5665 5671 5674 5677 5679 5681 5681 5681 5681 5680 5679 5679 5678 5677 5676 5675 5674 5673 5671 5670 5668 5666 5665 5663 5662 5660 5658 5656 5653 5651
5506 5506 5512 5533 5537 5540 5534 5547 5576 5579 5580 5587 5596 5604 5614 5626 5636 5646 5654 5660 5665 5668 5671 5674 5676 5676 5676 5676 5675 5674 5673 5673 5672 5671 5670 5669 5668 5667 5666 5664 5662 5660 5659 5657 5654 5652 5649 5647 5645
5489 5490 5500 5516 5528 5529 5527 5539 5562 5567 5570 5578 5587 5595 5605 5617 5628 5639 5648 5654 5659 5664 5666 5668 5670 5671 5671 5670 5669 5669 5668 5668 5668 5667 5666 5665 5664 5664 5662 5660 5658 5656 5654 5652 5650 5647 5645 5641 5639
5483 5482 5490 5499 5514 5516 5517 5530 5547 5554 5559 5568 5577 5586 5597 5609 5623 5633 5641 5648 5653 5657 5660 5663 5664 5665 5665 5664 5663 5662 5663 5663 5663 5664 5663 5662 5661 5660 5658 5656 5655 5652 5650 5647 5645 5642 5639 5636 5634
5476 5475 5478 5491 5501 5499 5506 5518 5534 5544 5549 5558 5568 5578 5589 5603 5616 5625 5633 5640 5645 5650 5654 5658 5659 5660 5660 5660 5660 5660 5660 5660 5659 5660 5660 5659 5658 5657 5655 5653 5651 5649 5647 5644 5641 5637 5634 5630 5628
5464 5464 5469 5480 5490 5491 5494 5507 5525 5536 5545 5555 5564 5573 5583 5594 5605 5615 5624 5632 5639 5645 5650 5653 5656 5657 5658 5660 5661 5660 5658 5657 5656 5656 5656 5656 5655 5654 5652 5651 5649 5646 5643 5640 5637 5634 5629 5626 5624
5459 5457 5462 5466 5476 5481 5481 5495 5515 5532 5542 5552 5561 5569 5578 5588 5598 5607 5617 5626 5633 5640 5646 5651 5654 5656 5657 5657 5655 5653 5651 5650 5650 5652 5654 5654 5653 5652 5651 5649 5647 5644 5641 5638 5635 5632 5628 5623 5618
5454 5462 5462 5462 5457 5460 5471 5473 5504 5521 5532 5544 5554 5561 5571 5581 5591 5600 5610 5619 5628 5637 5643 5647 5651 5653 5654 5654 5653 5653 5654 5655 5657 5656 5653 5651 5650 5649 5648 5646 5644 5642 5639 5636 5633 5630 5627 5622 5616
5450 5457 5455 5454 5449 5446 5457 5456 5489 5510 5523 5538 5548 5557 5566 5575 5584 5593 5603 5614 5624 5631 5637 5642 5646 5649 5651 5652 5653 5652 5654 5655 5654 5651 5649 5648 5647 5647 5646 5644 5642 5640 5637 5635 5631 5627 5624 5621 5617
5448 5445 5444 5440 5436 5435 5453 5451 5473 5498 5519 5532 5543 5551 5560 5569 5578 5588 5598 5606 5615 5623 5630 5636 5640 5645 5648 5650 5651 5652 5653 5653 5651 5649 5648 5647 5646 5645 5644 5643 5641 5639 5636 5633 5630 5626 5622 5619 5616
5436 5426 5420 5415 5415 5428 5454 5456 5477 5503 5516 5526 5535 5543 5552 5561 5569 5579 5588 5597 5607 5615 5624 5630 5636 5641 5645 5647 5650 5652 5652 5652 5652 5651 5649 5647 5645 5645 5644 5642 5640 5638 5635 5632 5628 5624 5620 5617 5614
5427 5422 5414 5413 5417 5433 5448 5457 5481 5501 5512 5520 5528 5536 5543 5551 5560 5570 5580 5589 5599 5609 5619 5626 5631 5637 5642 5645 5648 5650 5651 5650 5651 5650 5649 5648 5648 5647 5644 5641 5639 5637 5633 5630 5626 5622 5618 5615 5611
5421 5419 5422 5415 5415 5420 5436 5453 5475 5495 5502 5510 5518 5524 5532 5541 5551 5561 5571 5581 5591 5602 5612 5621 5628 5633 5638 5643 5645 5647 5648 5649 5650 5649 5648 5647 5647 5644 5642 5639 5637 5634 5631 5628 5624 5620 5616 5612 5609
5420 5417 5410 5406 5407 5418 5432 5444 5466 5484 5493 5500 5507 5514 5523 5532 5542 5552 5563 5573 5584 5595 5605 5614 5622 5629 5635 5640 5643 5646 5647 5649 5648 5647 5646 5646 5645 5642 5640 5637 5635 5632 5628 5625 5622 5618 5614 5609 5605
5409 5408 5407 5402 5399 5406 5418 5449 5474 5478 5484 5488 5495 5503 5510 5519 5529 5540 5551 5562 5574 5585 5595 5605 5615 5623 5630 5635 5640 5643 5645 5646 5645 5645 5645 5644 5642 5640 5638 5636 5633 5630 5627 5623 5620 5616 5611 5607 5602
5404 5403 5399 5392 5391 5394 5404 5440 5472 5471 5475 5479 5485 5493 5501 5510 5519 5530 5540 5551 5563 5574 5586 5596 5606 5616 5626 5632 5636 5639 5642 5641 5642 5642 5643 5642 5640 5638 5637 5634 5631 5628 5625 5621 5618 5614 5609 5605 5600